#ZEITBEREICH: 03.05.2023 bis 03.05.2024
Datum;Zeit;DUB2 F AM1H [%];DUB2 NO AM1H [�g/m�];DUB2 NO2 AM1H [�g/m�];DUB2 PM10F GM24H [�g/m�];DUB2 SO2 AM1H [�g/m�];DUB2 T AM1H [�C];DUB2 WG SM1H [m/s];DUB2 WR VM1H [�]
03.05.2023;01:00;67,0;;;22;<10;7,3;0,6;40
03.05.2023;02:00;70,6;;;21;<10;6,8;0,6;14
03.05.2023;03:00;74,4;;;21;14;6,0;1,0;35
03.05.2023;04:00;76,9;;;20;18;5,5;0,7;38
03.05.2023;05:00;78,1;;;21;<10;5,1;0,6;40
03.05.2023;06:00;78,3;;;21;<10;5,1;0,8;48
03.05.2023;07:00;75,9;;;21;<10;6,2;1,1;44
03.05.2023;08:00;68,1;;;21;<10;8,5;1,4;66
03.05.2023;09:00;61,1;;;21;<10;10,1;1,8;88
03.05.2023;10:00;55,5;;;20;<10;11,1;1,8;82
03.05.2023;11:00;52,9;;;19;<10;12,1;1,9;85
03.05.2023;12:00;49,8;;;19;<10;12,9;2,2;95
03.05.2023;13:00;45,9;;;19;<10;14,1;1,9;78
03.05.2023;14:00;43,6;;;19;;15,0;1,9;69
03.05.2023;15:00;41,6;;;19;<10;15,7;2,2;55
03.05.2023;16:00;39,9;<7;11;19;<10;16,1;2,2;44
03.05.2023;17:00;39,6;<7;12;18;<10;16,4;2,2;50
03.05.2023;18:00;39,8;<7;11;18;<10;16,4;2,1;45
03.05.2023;19:00;42,2;<7;12;18;<10;16,1;1,8;46
03.05.2023;20:00;45,3;<7;15;17;<10;15,0;1,7;40
03.05.2023;21:00;49,1;<7;19;17;13;14,0;1,7;36
03.05.2023;22:00;51,5;<7;25;17;<10;13,1;1,6;43
03.05.2023;23:00;53,5;<7;19;17;<10;12,3;1,4;42
03.05.2023;24:00;56,5;<7;15;18;<10;11,5;1,2;50
04.05.2023;01:00;59,1;<7;21;18;<10;10,9;1,2;72
04.05.2023;02:00;61,9;<7;24;18;<10;10,3;1,0;67
04.05.2023;03:00;65,3;<7;28;18;10;9,6;0,9;55
04.05.2023;04:00;67,6;<7;32;19;11;9,0;0,9;58
04.05.2023;05:00;70,0;<7;44;19;11;8,4;0,9;67
04.05.2023;06:00;71,1;<7;52;19;10;8,3;0,7;66
04.05.2023;07:00;69,1;20;52;19;11;9,3;1,0;90
04.05.2023;08:00;62,0;27;53;20;12;11,6;1,1;110
04.05.2023;09:00;55,1;26;50;20;13;14,1;1,0;68
04.05.2023;10:00;50,0;15;44;20;12;16,6;1,2;95
04.05.2023;11:00;45,2;7;31;20;<10;19,3;1,5;112
04.05.2023;12:00;41,1;<7;<10;20;<10;20,5;2,3;118
04.05.2023;13:00;37,1;<7;<10;20;<10;21,6;2,3;123
04.05.2023;14:00;32,6;<7;<10;20;<10;22,9;2,2;140
04.05.2023;15:00;28,0;<7;<10;;;23,5;2,8;139
04.05.2023;16:00;27,1;;;;<10;24,2;2,3;137
04.05.2023;17:00;25,3;<7;<10;;<10;24,4;2,6;151
04.05.2023;18:00;25,5;<7;11;;<10;24,3;2,4;166
04.05.2023;19:00;25,7;<7;10;;<10;23,7;2,4;152
04.05.2023;20:00;30,5;<7;12;;<10;22,9;2,1;136
04.05.2023;21:00;35,9;<7;21;;<10;21,5;1,3;124
04.05.2023;22:00;39,7;<7;49;;<10;20,4;0,9;148
04.05.2023;23:00;44,5;<7;25;;<10;19,3;1,4;149
04.05.2023;24:00;46,7;<7;24;;<10;19,1;1,6;174
05.05.2023;01:00;46,5;<7;22;;<10;19,2;2,0;178
05.05.2023;02:00;50,1;<7;24;;<10;18,6;1,6;192
05.05.2023;03:00;57,0;<7;33;;12;17,7;1,3;196
05.05.2023;04:00;64,8;<7;35;;<10;16,9;1,3;195
05.05.2023;05:00;68,9;<7;51;;<10;16,3;0,9;182
05.05.2023;06:00;74,4;13;63;;<10;15,7;1,6;191
05.05.2023;07:00;75,8;<7;40;;<10;15,8;1,8;192
05.05.2023;08:00;69,0;<7;30;;<10;17,4;1,9;192
05.05.2023;09:00;65,2;<7;26;;18;18,3;1,7;223
05.05.2023;10:00;60,5;<7;23;;20;19,1;1,7;318
05.05.2023;11:00;57,9;<7;28;;27;19,8;1,5;328
05.05.2023;12:00;53,3;<7;24;23;21;21,2;1,1;162
05.05.2023;13:00;54,3;<7;11;22;13;20,6;1,8;197
05.05.2023;14:00;59,0;<7;20;22;<10;19,7;2,0;181
05.05.2023;15:00;57,7;<7;24;23;19;19,6;1,8;227
05.05.2023;16:00;80,3;<7;18;23;;15,3;3,4;335
05.05.2023;17:00;85,9;;;22;16;13,8;3,2;341
05.05.2023;18:00;84,4;10;32;22;15;14,2;1,3;27
05.05.2023;19:00;80,5;<7;21;22;<10;14,5;0,9;136
05.05.2023;20:00;84,0;<7;33;21;<10;14,1;1,1;137
05.05.2023;21:00;86,6;<7;48;21;<10;13,6;0,8;136
05.05.2023;22:00;87,6;19;59;21;<10;13,2;0,8;154
05.05.2023;23:00;88,5;26;49;21;<10;12,7;0,8;149
05.05.2023;24:00;90,3;21;43;21;<10;12,4;0,9;128
06.05.2023;01:00;91,3;37;35;22;<10;11,7;1,1;129
06.05.2023;02:00;91,9;15;34;22;<10;11,6;0,9;123
06.05.2023;03:00;90,9;20;29;22;<10;11,3;0,7;118
06.05.2023;04:00;90,9;18;25;21;<10;10,8;0,7;126
06.05.2023;05:00;91,4;20;28;21;<10;10,9;0,9;159
06.05.2023;06:00;91,5;16;30;21;<10;11,7;1,2;174
06.05.2023;07:00;89,2;23;30;21;<10;12,6;1,3;184
06.05.2023;08:00;82,6;16;33;21;<10;14,1;1,6;183
06.05.2023;09:00;75,3;10;30;20;<10;15,8;1,4;189
06.05.2023;10:00;70,7;13;37;21;22;17,3;1,5;198
06.05.2023;11:00;63,0;7;29;20;20;18,6;1,5;192
06.05.2023;12:00;55,8;<7;29;20;31;19,6;1,5;209
06.05.2023;13:00;49,4;<7;22;20;24;20,7;1,5;196
06.05.2023;14:00;46,2;<7;17;20;17;21,3;1,6;190
06.05.2023;15:00;46,4;<7;17;20;14;21,8;1,6;194
06.05.2023;16:00;48,0;<7;18;19;12;21,5;1,3;202
06.05.2023;17:00;59,5;<7;17;19;;19,8;2,1;197
06.05.2023;18:00;76,0;;;19;30;16,9;2,1;186
06.05.2023;19:00;74,2;<7;24;19;16;17,2;1,5;176
06.05.2023;20:00;70,5;<7;32;20;17;17,4;1,2;172
06.05.2023;21:00;75,1;<7;38;20;<10;16,8;1,0;124
06.05.2023;22:00;74,8;<7;38;20;<10;16,5;0,7;128
06.05.2023;23:00;75,6;<7;40;20;<10;16,8;0,5;86
06.05.2023;24:00;78,1;<7;28;19;<10;16,6;0,5;65
07.05.2023;01:00;78,8;<7;29;19;<10;16,3;0,6;65
07.05.2023;02:00;81,3;<7;28;18;<10;15,9;0,8;93
07.05.2023;03:00;83,9;<7;28;18;<10;15,4;0,8;111
07.05.2023;04:00;84,9;<7;29;18;<10;15,1;0,6;89
07.05.2023;05:00;86,5;<7;27;18;<10;14,8;0,9;113
07.05.2023;06:00;87,1;<7;29;18;<10;14,7;0,7;108
07.05.2023;07:00;86,2;7;23;18;<10;15,0;1,0;95
07.05.2023;08:00;81,1;<7;20;17;<10;16,2;1,2;100
07.05.2023;09:00;75,1;<7;16;17;<10;17,3;1,3;91
07.05.2023;10:00;67,5;<7;15;16;<10;18,9;1,3;116
07.05.2023;11:00;64,3;<7;16;16;<10;20,2;1,4;64
07.05.2023;12:00;60,6;<7;15;16;<10;21,2;1,4;64
07.05.2023;13:00;57,8;<7;13;15;<10;21,7;1,5;48
07.05.2023;14:00;55,4;<7;12;15;<10;21,8;1,2;93
07.05.2023;15:00;56,7;<7;<10;15;<10;21,4;1,4;69
07.05.2023;16:00;66,9;<7;15;15;<10;19,9;1,3;114
07.05.2023;17:00;70,0;<7;17;15;<10;19,4;1,6;107
07.05.2023;18:00;69,3;<7;19;15;;20,0;1,2;119
07.05.2023;19:00;73,0;;;15;22;19,5;1,3;309
07.05.2023;20:00;78,8;<7;22;16;12;17,5;1,8;343
07.05.2023;21:00;82,5;8;43;16;<10;17,3;1,5;30
07.05.2023;22:00;83,5;<7;35;17;<10;17,2;0,7;96
07.05.2023;23:00;85,0;<7;30;16;<10;16,9;0,5;
07.05.2023;24:00;83,2;<7;24;16;<10;16,6;0,5;87
08.05.2023;01:00;82,1;<7;23;17;<10;16,3;0,5;
08.05.2023;02:00;82,3;<7;21;17;<10;15,7;0,6;101
08.05.2023;03:00;83,0;<7;21;17;<10;15,1;0,8;116
08.05.2023;04:00;84,3;<7;28;17;<10;14,6;0,8;114
08.05.2023;05:00;85,7;10;32;17;<10;14,2;0,8;128
08.05.2023;06:00;86,5;33;34;17;<10;14,3;0,9;127
08.05.2023;07:00;87,1;32;31;17;<10;14,8;1,1;140
08.05.2023;08:00;82,5;17;28;18;<10;16,5;1,4;175
08.05.2023;09:00;77,9;13;27;18;<10;17,7;1,7;182
08.05.2023;10:00;74,8;11;27;18;<10;18,7;2,0;186
08.05.2023;11:00;71,3;8;28;19;14;19,2;1,9;185
08.05.2023;12:00;67,1;<7;18;19;<10;20,1;2,2;168
08.05.2023;13:00;64,7;<7;16;19;<10;20,6;2,3;166
08.05.2023;14:00;62,3;<7;15;20;<10;20,8;2,0;157
08.05.2023;15:00;62,1;<7;<10;19;<10;21,2;2,4;134
08.05.2023;16:00;57,3;<7;<10;19;<10;21,8;2,2;152
08.05.2023;17:00;60,4;<7;10;19;<10;21,4;2,1;164
08.05.2023;18:00;61,2;<7;<10;19;<10;20,3;2,2;152
08.05.2023;19:00;68,9;<7;11;19;;19,1;2,2;151
08.05.2023;20:00;72,9;;;18;25;18,9;1,7;161
08.05.2023;21:00;76,1;<7;22;18;<10;18,3;1,5;139
08.05.2023;22:00;76,6;<7;17;17;15;18,0;1,8;161
08.05.2023;23:00;77,6;<7;19;18;14;17,6;1,7;172
08.05.2023;24:00;78,8;<7;17;18;<10;17,2;2,2;172
09.05.2023;01:00;80,1;<7;21;18;<10;16,8;2,1;174
09.05.2023;02:00;80,6;<7;24;18;<10;16,6;2,0;173
09.05.2023;03:00;81,7;<7;23;18;<10;16,3;1,8;173
09.05.2023;04:00;82,6;<7;32;18;<10;16,3;1,3;185
09.05.2023;05:00;84,1;<7;31;18;<10;16,2;1,4;185
09.05.2023;06:00;82,8;<7;24;18;<10;16,2;1,3;172
09.05.2023;07:00;82,9;<7;29;18;<10;16,4;1,4;174
09.05.2023;08:00;81,6;12;31;19;<10;16,9;1,7;175
09.05.2023;09:00;78,8;10;28;20;14;17,7;2,4;173
09.05.2023;10:00;71,6;11;26;20;17;19,2;2,1;186
09.05.2023;11:00;63,1;<7;14;19;<10;20,0;2,3;183
09.05.2023;12:00;61,9;<7;17;19;<10;20,1;1,9;186
09.05.2023;13:00;60,9;<7;20;19;12;20,7;2,4;164
09.05.2023;14:00;64,9;<7;18;19;11;20,4;1,8;194
09.05.2023;15:00;83,7;7;25;20;<10;17,4;1,6;254
09.05.2023;16:00;85,5;<7;26;21;<10;16,9;1,8;292
09.05.2023;17:00;87,5;<7;19;21;<10;16,2;1,3;234
09.05.2023;18:00;86,8;<7;23;22;<10;15,9;1,0;227
09.05.2023;19:00;88,7;<7;17;22;<10;14,9;1,7;187
09.05.2023;20:00;90,2;<7;18;22;;14,3;1,3;184
09.05.2023;21:00;91,1;;;21;22;14,3;1,3;181
09.05.2023;22:00;91,4;<7;12;21;<10;13,8;1,8;194
09.05.2023;23:00;92,6;<7;13;20;<10;13,5;1,7;194
09.05.2023;24:00;93,2;<7;10;20;<10;13,4;2,0;197
10.05.2023;01:00;93,1;<7;15;20;<10;13,5;1,3;204
10.05.2023;02:00;91,4;<7;19;20;<10;13,3;2,0;290
10.05.2023;03:00;90,2;<7;21;19;<10;13,2;2,0;303
10.05.2023;04:00;91,3;<7;18;18;<10;13,1;1,3;190
10.05.2023;05:00;92,3;<7;20;18;<10;13,1;1,8;191
10.05.2023;06:00;92,3;<7;23;17;<10;13,2;1,8;195
10.05.2023;07:00;91,0;<7;23;17;<10;13,5;1,7;195
10.05.2023;08:00;90,2;<7;22;15;<10;13,5;2,1;194
10.05.2023;09:00;89,7;<7;18;15;<10;13,8;1,9;194
10.05.2023;10:00;84,1;<7;16;15;<10;15,0;1,9;197
10.05.2023;11:00;80,0;<7;18;16;<10;15,2;1,9;201
10.05.2023;12:00;80,8;<7;21;16;10;14,9;1,5;205
10.05.2023;13:00;79,6;<7;18;16;<10;15,4;1,7;207
10.05.2023;14:00;74,7;<7;15;16;<10;15,9;1,8;192
10.05.2023;15:00;66,5;<7;13;15;12;17,5;1,8;204
10.05.2023;16:00;63,5;<7;13;15;13;18,2;1,5;210
10.05.2023;17:00;71,2;<7;20;15;<10;16,2;2,3;290
10.05.2023;18:00;80,8;<7;21;14;<10;14,4;2,0;300
10.05.2023;19:00;81,2;<7;23;14;<10;14,4;1,4;291
10.05.2023;20:00;83,9;<7;25;14;<10;14,4;1,0;191
10.05.2023;21:00;86,3;<7;25;15;;14,1;0,7;139
10.05.2023;22:00;87,3;;;15;22;14,0;0,9;147
10.05.2023;23:00;89,5;<7;25;15;<10;13,7;1,5;191
10.05.2023;24:00;89,7;<7;21;15;<10;13,5;1,3;191
11.05.2023;01:00;89,6;<7;19;16;<10;13,3;1,0;188
11.05.2023;02:00;88,8;<7;22;16;<10;13,4;1,0;199
11.05.2023;03:00;89,5;<7;23;17;<10;13,2;1,4;185
11.05.2023;04:00;90,6;<7;14;17;<10;12,8;1,7;195
11.05.2023;05:00;89,5;<7;20;17;<10;12,8;1,4;232
11.05.2023;06:00;88,9;<7;24;18;17;12,9;1,0;285
11.05.2023;07:00;89,9;<7;30;18;<10;12,8;1,3;193
11.05.2023;08:00;87,2;8;31;18;10;13,3;1,0;219
11.05.2023;09:00;80,5;<7;24;18;19;14,7;1,0;215
11.05.2023;10:00;78,1;<7;22;18;46;15,3;1,1;261
11.05.2023;11:00;80,9;<7;22;18;<10;14,8;1,5;307
11.05.2023;12:00;82,4;<7;25;18;12;15,1;1,3;284
11.05.2023;13:00;77,7;<7;22;19;19;15,7;1,5;288
11.05.2023;14:00;78,4;<7;23;19;14;15,7;1,4;296
11.05.2023;15:00;74,8;<7;22;19;13;16,3;1,8;312
11.05.2023;16:00;73,0;<7;25;20;22;16,6;2,6;327
11.05.2023;17:00;81,1;<7;13;19;<10;15,0;1,1;58
11.05.2023;18:00;81,0;<7;<10;19;<10;15,4;1,1;83
11.05.2023;19:00;81,6;<7;<10;19;<10;15,5;1,2;60
11.05.2023;20:00;84,6;<7;<10;19;<10;14,9;1,2;46
11.05.2023;21:00;84,6;<7;15;19;<10;14,6;1,0;41
11.05.2023;22:00;87,3;8;42;19;;14,5;1,4;24
11.05.2023;23:00;89,3;;;20;37;14,3;1,6;21
11.05.2023;24:00;90,7;21;38;21;31;13,9;1,8;14
12.05.2023;01:00;92,3;14;25;21;24;13,6;2,2;337
12.05.2023;02:00;93,1;<7;21;21;10;13,3;2,3;341
12.05.2023;03:00;92,2;11;27;22;11;13,6;2,0;16
12.05.2023;04:00;91,5;<7;11;21;<10;13,8;1,4;53
12.05.2023;05:00;91,2;<7;17;21;<10;13,5;1,3;102
12.05.2023;06:00;90,2;<7;31;20;<10;13,5;1,0;72
12.05.2023;07:00;87,8;11;35;20;<10;13,7;1,0;92
12.05.2023;08:00;82,3;8;28;19;<10;14,4;1,4;89
12.05.2023;09:00;79,9;<7;23;19;<10;14,7;1,4;72
12.05.2023;10:00;79,6;<7;24;18;<10;14,7;1,3;71
12.05.2023;11:00;74,8;<7;21;17;<10;15,7;1,1;65
12.05.2023;12:00;67,4;<7;18;17;<10;17,1;1,4;66
12.05.2023;13:00;62,8;<7;14;16;<10;18,6;1,5;48
12.05.2023;14:00;61,3;<7;11;16;<10;18,9;1,4;52
12.05.2023;15:00;60,4;<7;11;15;<10;19,3;1,5;45
12.05.2023;16:00;55,6;<7;11;15;<10;20,4;1,9;39
12.05.2023;17:00;58,1;<7;12;15;<10;18,1;1,9;60
12.05.2023;18:00;61,4;<7;30;16;11;17,7;1,4;45
12.05.2023;19:00;58,8;<7;27;17;<10;18,2;0,6;58
12.05.2023;20:00;59,5;<7;59;19;10;18,3;1,0;30
12.05.2023;21:00;69,1;<7;54;21;22;17,5;0,9;347
12.05.2023;22:00;75,5;<7;39;22;17;16,5;1,6;331
12.05.2023;23:00;63,3;<7;56;27;;17,6;1,8;28
12.05.2023;24:00;74,3;;;27;25;14,9;1,1;95
13.05.2023;01:00;76,7;<7;34;27;<10;14,0;0,6;75
13.05.2023;02:00;71,3;<7;41;28;<10;14,5;1,1;35
13.05.2023;03:00;76,9;<7;14;28;<10;13,0;1,0;77
13.05.2023;04:00;74,8;<7;31;29;<10;13,2;0,7;29
13.05.2023;05:00;76,2;<7;23;30;<10;12,4;0,9;48
13.05.2023;06:00;73,6;<7;26;31;<10;12,8;0,6;26
13.05.2023;07:00;70,4;<7;27;31;<10;13,8;1,0;37
13.05.2023;08:00;68,6;<7;18;32;<10;15,1;1,3;31
13.05.2023;09:00;60,0;<7;16;32;<10;17,4;1,4;32
13.05.2023;10:00;57,2;<7;19;33;<10;18,9;1,3;53
13.05.2023;11:00;48,5;<7;13;33;<10;20,6;1,8;53
13.05.2023;12:00;43,1;<7;16;34;<10;21,8;2,2;36
13.05.2023;13:00;38,8;<7;13;34;<10;22,4;2,4;34
13.05.2023;14:00;35,4;<7;<10;35;<10;23,1;2,1;35
13.05.2023;15:00;36,5;<7;12;35;<10;22,7;2,0;39
13.05.2023;16:00;35,8;<7;<10;36;<10;22,9;1,8;41
13.05.2023;17:00;37,7;<7;10;36;<10;21,9;1,9;83
13.05.2023;18:00;41,2;<7;12;36;<10;20,4;1,7;117
13.05.2023;19:00;47,8;<7;18;35;<10;19,9;1,4;180
13.05.2023;20:00;55,9;<7;40;34;18;18,6;1,5;187
13.05.2023;21:00;63,0;<7;57;32;<10;17,1;0,8;177
13.05.2023;22:00;68,0;<7;73;31;<10;16,1;0,4;124
13.05.2023;23:00;69,7;27;80;27;<10;15,6;0,5;132
13.05.2023;24:00;70,6;16;65;27;;15,4;0,6;121
14.05.2023;01:00;71,4;;;28;20;15,0;0,6;94
14.05.2023;02:00;72,1;<7;45;27;22;14,2;0,5;123
14.05.2023;03:00;75,3;<7;31;27;<10;13,2;0,5;70
14.05.2023;04:00;74,2;<7;36;26;<10;13,0;0,5;51
14.05.2023;05:00;72,7;<7;24;26;<10;12,7;0,8;47
14.05.2023;06:00;76,2;<7;26;26;<10;12,1;0,3;
14.05.2023;07:00;71,9;9;31;25;<10;13,3;0,5;132
14.05.2023;08:00;67,0;<7;27;26;11;15,5;0,8;62
14.05.2023;09:00;62,4;<7;25;26;<10;17,0;0,9;13
14.05.2023;10:00;56,7;<7;25;26;11;19,0;0,9;351
14.05.2023;11:00;44,8;<7;11;26;<10;20,9;1,3;35
14.05.2023;12:00;40,8;<7;11;26;12;21,0;1,4;47
14.05.2023;13:00;33,2;<7;<10;25;<10;21,8;1,4;46
14.05.2023;14:00;34,7;8;30;25;43;22,1;2,1;350
14.05.2023;15:00;33,4;<7;12;25;12;22,1;1,5;22
14.05.2023;16:00;35,0;<7;33;26;43;21,9;1,8;348
14.05.2023;17:00;37,6;<7;21;26;22;21,5;2,1;344
14.05.2023;18:00;43,5;<7;23;26;22;21,0;2,4;341
14.05.2023;19:00;42,2;10;62;27;101;20,9;2,0;352
14.05.2023;20:00;44,1;8;56;26;79;20,3;1,8;343
14.05.2023;21:00;45,6;<7;22;27;19;19,7;1,2;7
14.05.2023;22:00;47,8;<7;52;27;13;19,2;1,1;11
14.05.2023;23:00;63,8;<7;21;26;<10;17,4;2,1;330
14.05.2023;24:00;81,4;<7;<10;25;<10;16,0;2,1;337
15.05.2023;01:00;87,0;<7;20;25;<10;14,8;2,1;328
15.05.2023;02:00;88,1;;;25;21;13,7;2,1;326
15.05.2023;03:00;87,9;<7;15;25;<10;13,0;2,1;327
15.05.2023;04:00;87,4;<7;22;25;<10;12,6;1,8;326
15.05.2023;05:00;86,7;<7;24;25;15;12,5;1,3;321
15.05.2023;06:00;87,2;8;35;26;17;12,1;1,3;324
15.05.2023;07:00;84,3;<7;25;26;11;12,2;1,7;306
15.05.2023;08:00;82,0;8;24;26;32;12,4;2,1;297
15.05.2023;09:00;82,4;<7;20;27;22;12,5;1,9;309
15.05.2023;10:00;72,0;<7;23;27;32;14,9;1,7;313
15.05.2023;11:00;64,0;<7;22;27;31;16,3;2,1;315
15.05.2023;12:00;57,9;<7;17;27;18;17,6;1,9;305
15.05.2023;13:00;50,8;<7;17;28;48;18,9;1,9;303
15.05.2023;14:00;48,5;<7;19;28;30;19,4;2,6;318
15.05.2023;15:00;55,6;<7;23;29;25;18,9;3,2;321
15.05.2023;16:00;58,2;<7;18;29;14;18,3;3,0;319
15.05.2023;17:00;65,8;<7;21;31;19;17,4;2,8;308
15.05.2023;18:00;64,4;<7;20;31;10;17,5;2,4;320
15.05.2023;19:00;79,2;<7;16;31;18;14,9;2,5;311
15.05.2023;20:00;82,3;<7;17;30;11;14,4;1,9;301
15.05.2023;21:00;80,6;<7;15;30;22;13,8;2,1;292
15.05.2023;22:00;80,0;<7;19;30;21;13,3;2,0;298
15.05.2023;23:00;80,7;<7;13;29;22;13,0;2,1;292
15.05.2023;24:00;89,5;<7;13;29;12;11,9;2,4;316
16.05.2023;01:00;89,8;<7;18;28;13;10,8;2,9;337
16.05.2023;02:00;88,5;<7;12;27;<10;10,2;3,2;337
16.05.2023;03:00;85,2;;;27;38;9,9;2,4;356
16.05.2023;04:00;82,3;<7;23;27;17;9,7;2,6;341
16.05.2023;05:00;82,4;10;31;27;24;9,1;2,4;344
16.05.2023;06:00;82,7;10;28;26;10;8,6;2,1;340
16.05.2023;07:00;79,1;21;35;26;38;9,3;2,1;346
16.05.2023;08:00;73,7;9;23;25;;10,3;2,2;346
16.05.2023;09:00;65,8;;;24;;11,0;2,5;343
16.05.2023;10:00;62,7;<7;12;23;;11,3;2,9;339
16.05.2023;11:00;59,3;<7;17;23;20;12,4;2,6;333
16.05.2023;12:00;59,8;<7;15;22;16;12,9;2,5;333
16.05.2023;13:00;59,8;<7;22;22;20;13,2;2,2;342
16.05.2023;14:00;49,8;7;17;21;21;14,4;3,1;326
16.05.2023;15:00;48,5;<7;18;20;<10;14,8;2,5;345
16.05.2023;16:00;48,8;7;23;19;26;14,6;3,2;329
16.05.2023;17:00;57,4;<7;19;18;11;13,4;2,6;337
16.05.2023;18:00;60,7;<7;12;18;<10;12,9;2,2;349
16.05.2023;19:00;64,1;<7;24;17;19;12,8;2,6;324
16.05.2023;20:00;64,4;18;41;17;55;12,6;1,6;347
16.05.2023;21:00;65,4;<7;16;17;<10;12,3;1,8;357
16.05.2023;22:00;68,4;<7;16;17;<10;12,0;2,0;345
16.05.2023;23:00;72,4;<7;13;17;<10;11,2;1,6;351
16.05.2023;24:00;74,6;<7;17;17;<10;10,6;3,0;324
17.05.2023;01:00;79,5;<7;22;17;<10;9,9;2,8;326
17.05.2023;02:00;81,8;<7;23;17;<10;9,4;2,5;327
17.05.2023;03:00;84,9;<7;22;17;<10;8,9;2,3;327
17.05.2023;04:00;86,1;<7;20;17;<10;8,7;1,6;326
17.05.2023;05:00;86,4;<7;21;17;<10;8,7;1,8;315
17.05.2023;06:00;87,6;8;32;17;13;8,9;2,2;326
17.05.2023;07:00;82,7;17;41;17;24;9,8;1,7;338
17.05.2023;08:00;68,3;32;49;18;94;11,3;1,8;4
17.05.2023;09:00;62,8;34;51;21;117;11,7;2,1;343
17.05.2023;10:00;61,1;26;36;21;93;11,8;2,7;336
17.05.2023;11:00;54,5;21;32;22;63;12,6;2,3;348
17.05.2023;12:00;51,7;18;29;22;58;13,2;2,3;334
17.05.2023;13:00;50,2;7;17;23;27;13,5;2,7;330
17.05.2023;14:00;47,3;20;35;24;74;14,3;2,2;349
17.05.2023;15:00;44,9;13;29;24;52;14,8;2,0;359
17.05.2023;16:00;44,1;10;25;24;36;15,0;1,9;17
17.05.2023;17:00;42,2;17;34;25;64;15,6;1,9;359
17.05.2023;18:00;41,6;12;32;25;53;15,3;1,8;9
17.05.2023;19:00;43,3;<7;35;26;51;15,0;1,8;9
17.05.2023;20:00;45,5;<7;36;28;28;14,1;1,8;31
17.05.2023;21:00;49,5;<7;19;30;<10;12,9;1,6;46
17.05.2023;22:00;55,6;<7;17;30;<10;11,6;1,5;48
17.05.2023;23:00;60,0;<7;16;30;<10;10,4;1,5;37
17.05.2023;24:00;63,9;<7;<10;31;<10;9,3;1,4;31
18.05.2023;01:00;66,9;<7;15;31;11;8,6;1,1;31
18.05.2023;02:00;69,5;<7;13;31;<10;7,8;0,9;31
18.05.2023;03:00;71,5;<7;21;30;10;7,5;0,8;31
18.05.2023;04:00;74,8;<7;14;30;<10;6,8;1,1;30
18.05.2023;05:00;76,6;<7;17;30;<10;6,4;0,8;35
18.05.2023;06:00;74,2;<7;13;29;<10;6,8;0,8;48
18.05.2023;07:00;70,4;<7;15;29;<10;7,9;1,1;53
18.05.2023;08:00;63,9;<7;15;28;<10;9,7;1,3;62
18.05.2023;09:00;58,0;<7;<10;26;<10;11,2;1,5;55
18.05.2023;10:00;53,7;<7;<10;25;<10;12,3;1,6;45
18.05.2023;11:00;50,6;<7;<10;24;<10;13,4;1,7;53
18.05.2023;12:00;48,1;<7;<10;24;<10;14,3;1,6;49
18.05.2023;13:00;46,7;<7;<10;23;<10;14,9;1,7;61
18.05.2023;14:00;46,2;<7;<10;23;<10;15,5;1,8;49
18.05.2023;15:00;43,9;<7;<10;22;<10;16,4;1,8;49
18.05.2023;16:00;41,9;<7;14;22;13;16,9;2,0;52
18.05.2023;17:00;40,0;<7;<10;21;<10;17,0;1,6;64
18.05.2023;18:00;40,5;<7;<10;20;<10;17,0;1,7;41
18.05.2023;19:00;43,5;<7;<10;19;<10;16,3;1,8;38
18.05.2023;20:00;45,5;<7;<10;17;<10;15,5;1,8;37
18.05.2023;21:00;50,9;<7;11;16;<10;14,3;1,8;35
18.05.2023;22:00;54,5;<7;20;16;<10;13,2;2,0;40
18.05.2023;23:00;58,9;<7;17;16;<10;12,1;1,5;33
18.05.2023;24:00;62,0;<7;17;16;<10;11,4;1,0;23
19.05.2023;01:00;62,8;<7;18;16;11;11,0;0,8;22
19.05.2023;02:00;64,1;<7;18;16;<10;10,7;0,3;
19.05.2023;03:00;68,7;<7;14;16;<10;9,7;1,0;31
19.05.2023;04:00;72,1;<7;19;16;<10;8,9;1,0;33
19.05.2023;05:00;73,1;<7;30;16;<10;8,6;0,5;35
19.05.2023;06:00;72,5;<7;33;16;<10;8,9;0,7;37
19.05.2023;07:00;67,7;<7;27;16;<10;10,4;0,9;46
19.05.2023;08:00;59,2;<7;24;16;<10;13,0;1,1;42
19.05.2023;09:00;52,9;<7;20;16;<10;14,8;1,5;43
19.05.2023;10:00;47,7;<7;13;16;<10;16,0;1,9;40
19.05.2023;11:00;43,3;<7;11;16;<10;17,2;1,8;62
19.05.2023;12:00;41,9;<7;<10;16;<10;17,8;2,1;74
19.05.2023;13:00;41,2;<7;10;16;<10;18,5;1,9;47
19.05.2023;14:00;39,0;<7;10;16;<10;19,1;2,0;48
19.05.2023;15:00;37,5;<7;10;16;<10;20,0;1,8;57
19.05.2023;16:00;36,7;<7;<10;16;<10;20,0;1,9;62
19.05.2023;17:00;36,9;<7;<10;16;<10;20,1;2,0;50
19.05.2023;18:00;37,3;<7;11;16;<10;20,0;1,9;42
19.05.2023;19:00;37,5;<7;<10;16;<10;19,5;2,0;39
19.05.2023;20:00;39,1;<7;10;16;<10;18,7;2,0;36
19.05.2023;21:00;42,2;<7;11;16;<10;17,6;1,8;34
19.05.2023;22:00;46,7;<7;13;16;<10;16,3;1,9;33
19.05.2023;23:00;51,2;<7;12;16;<10;15,2;1,6;31
19.05.2023;24:00;54,0;<7;14;16;<10;14,5;1,4;31
20.05.2023;01:00;56,2;<7;14;16;<10;13,8;1,4;35
20.05.2023;02:00;59,4;<7;10;16;<10;13,0;1,5;33
20.05.2023;03:00;62,8;<7;13;16;<10;12,6;1,6;32
20.05.2023;04:00;67,0;<7;13;16;<10;12,2;1,8;34
20.05.2023;05:00;71,1;<7;15;16;<10;11,7;1,9;32
20.05.2023;06:00;71,7;<7;22;16;<10;11,9;1,8;33
20.05.2023;07:00;71,1;<7;15;16;<10;12,5;1,9;32
20.05.2023;08:00;63,2;<7;12;16;<10;14,8;2,1;41
20.05.2023;09:00;59,4;<7;<10;16;<10;15,9;2,2;47
20.05.2023;10:00;60,9;<7;<10;16;<10;16,0;2,3;43
20.05.2023;11:00;60,8;<7;<10;16;<10;16,3;2,2;55
20.05.2023;12:00;61,3;<7;<10;16;<10;16,4;2,4;42
20.05.2023;13:00;60,8;<7;<10;16;<10;17,1;1,8;47
20.05.2023;14:00;58,1;<7;<10;16;<10;18,5;2,4;44
20.05.2023;15:00;54,5;<7;<10;16;<10;19,4;1,9;50
20.05.2023;16:00;52,9;<7;<10;15;<10;19,4;2,0;49
20.05.2023;17:00;53,2;<7;<10;15;<10;19,3;1,8;55
20.05.2023;18:00;54,5;<7;<10;15;<10;18,9;1,8;48
20.05.2023;19:00;57,5;<7;<10;15;<10;18,2;1,7;49
20.05.2023;20:00;59,9;<7;<10;14;<10;17,7;1,7;42
20.05.2023;21:00;62,5;<7;<10;14;<10;17,1;1,5;44
20.05.2023;22:00;65,6;<7;<10;14;<10;16,4;1,2;41
20.05.2023;23:00;68,7;<7;13;14;<10;15,8;1,2;33
20.05.2023;24:00;71,7;<7;18;15;<10;15,2;1,1;31
21.05.2023;01:00;73,4;<7;16;14;<10;14,9;1,1;31
21.05.2023;02:00;74,8;<7;13;14;<10;14,5;1,6;31
21.05.2023;03:00;76,9;<7;18;15;<10;14,0;1,8;33
21.05.2023;04:00;77,2;<7;36;15;<10;14,0;1,9;33
21.05.2023;05:00;78,6;<7;32;15;<10;13,6;1,8;37
21.05.2023;06:00;81,1;<7;12;15;<10;13,1;1,7;31
21.05.2023;07:00;81,1;<7;13;15;<10;13,4;1,7;31
21.05.2023;08:00;79,3;<7;14;15;<10;14,3;1,6;36
21.05.2023;09:00;74,8;<7;14;15;<10;16,0;1,3;43
21.05.2023;10:00;71,3;<7;14;16;<10;17,4;1,5;19
21.05.2023;11:00;69,2;<7;11;16;<10;18,5;1,4;42
21.05.2023;12:00;65,5;<7;13;17;<10;20,1;1,4;12
21.05.2023;13:00;63,6;<7;13;18;<10;20,9;1,5;9
21.05.2023;14:00;60,8;<7;12;18;<10;22,3;1,7;51
21.05.2023;15:00;57,7;<7;<10;18;<10;23,4;1,8;40
21.05.2023;16:00;56,4;<7;11;19;14;24,0;1,6;49
21.05.2023;17:00;56,4;<7;15;20;<10;24,2;1,6;41
21.05.2023;18:00;58,2;<7;19;21;<10;24,0;1,5;44
21.05.2023;19:00;57,6;<7;21;22;<10;24,2;1,3;36
21.05.2023;20:00;60,7;<7;18;23;<10;23,5;1,4;28
21.05.2023;21:00;64,3;<7;47;24;50;22,7;1,2;9
21.05.2023;22:00;69,1;<7;26;24;26;21,8;1,6;322
21.05.2023;23:00;79,7;<7;25;25;<10;19,9;2,0;330
21.05.2023;24:00;81,7;<7;25;25;<10;19,0;1,5;337
22.05.2023;01:00;80,3;<7;27;25;<10;19,1;1,6;340
22.05.2023;02:00;78,5;<7;34;26;<10;19,4;1,2;2
22.05.2023;03:00;78,8;<7;20;26;<10;18,9;0,9;63
22.05.2023;04:00;81,0;<7;24;26;<10;18,4;0,7;184
22.05.2023;05:00;85,3;<7;41;26;<10;17,7;0,6;154
22.05.2023;06:00;85,2;<7;36;27;<10;17,8;0,9;330
22.05.2023;07:00;83,6;<7;34;27;<10;18,4;0,6;68
22.05.2023;08:00;76,5;8;32;28;<10;20,3;0,7;315
22.05.2023;09:00;79,2;11;30;29;<10;20,3;1,4;293
22.05.2023;10:00;82,0;7;23;29;<10;19,1;1,7;298
22.05.2023;11:00;83,4;<7;21;30;<10;18,1;2,1;306
22.05.2023;12:00;76,5;<7;17;30;<10;20,2;1,7;191
22.05.2023;13:00;71,3;<7;24;30;<10;22,2;1,6;305
22.05.2023;14:00;68,7;<7;20;31;10;23,2;1,6;290
22.05.2023;15:00;63,5;<7;20;32;<10;24,4;1,8;316
22.05.2023;16:00;61,1;<7;27;32;<10;24,4;1,6;305
22.05.2023;17:00;62,2;<7;23;33;25;24,6;1,4;209
22.05.2023;18:00;67,6;<7;22;33;12;22,3;2,9;326
22.05.2023;19:00;79,1;<7;27;33;<10;19,9;2,5;329
22.05.2023;20:00;77,4;<7;27;32;<10;20,6;2,5;333
22.05.2023;21:00;69,2;<7;16;31;<10;19,9;2,8;345
22.05.2023;22:00;70,5;<7;13;30;<10;19,0;2,4;335
22.05.2023;23:00;73,9;<7;17;30;<10;18,0;2,2;336
22.05.2023;24:00;79,6;<7;17;29;<10;16,9;3,1;328
23.05.2023;01:00;81,5;<7;18;29;<10;16,0;2,7;329
23.05.2023;02:00;80,7;<7;14;28;<10;15,7;2,7;331
23.05.2023;03:00;79,9;<7;13;28;11;15,8;2,0;320
23.05.2023;04:00;80,7;<7;23;28;15;15,7;2,7;327
23.05.2023;05:00;80,9;<7;20;28;16;15,3;3,3;328
23.05.2023;06:00;82,8;<7;20;27;10;15,1;2,6;333
23.05.2023;07:00;82,7;<7;27;27;15;15,0;2,6;330
23.05.2023;08:00;81,2;<7;25;26;15;14,9;2,9;333
23.05.2023;09:00;82,0;<7;22;26;17;14,2;2,9;335
23.05.2023;10:00;84,3;<7;24;26;15;13,2;2,5;337
23.05.2023;11:00;82,3;<7;24;25;18;12,9;2,8;330
23.05.2023;12:00;71,1;11;25;26;32;14,4;2,6;339
23.05.2023;13:00;66,4;12;25;25;35;14,7;2,7;341
23.05.2023;14:00;58,4;9;24;25;26;15,8;2,7;333
23.05.2023;15:00;53,3;<7;13;24;<10;16,7;2,9;337
23.05.2023;16:00;52,0;<7;15;24;15;16,8;3,0;327
23.05.2023;17:00;53,2;7;24;23;21;16,2;2,9;332
23.05.2023;18:00;51,6;<7;13;22;17;16,3;2,8;341
23.05.2023;19:00;52,6;<7;16;22;13;15,6;2,4;343
23.05.2023;20:00;53,7;<7;12;22;<10;14,7;2,7;342
23.05.2023;21:00;57,6;<7;17;22;<10;13,5;2,7;336
23.05.2023;22:00;59,3;<7;38;23;45;12,5;2,1;358
23.05.2023;23:00;63,1;14;51;23;103;11,4;2,2;347
23.05.2023;24:00;65,0;13;50;23;114;10,7;2,0;341
24.05.2023;01:00;67,7;<7;28;24;38;10,2;2,0;341
24.05.2023;02:00;71,2;<7;23;25;30;9,8;1,8;338
24.05.2023;03:00;75,0;<7;24;25;27;9,5;1,6;334
24.05.2023;04:00;78,5;<7;39;25;34;9,2;1,6;329